Showing default

DSAT, 42794

Orbit data source: Space-Track

DSAT, 42794 is a payload satellite owned by D-ORBIT (IT) in SSO that was launched on Fri, 23 Jun 2017 UTC via a PSLV-XL launch vehicle from the Sirharikota (SRI). Payload-class satellites include a variety of spacecraft equipped with specific instruments for various scientific and technological missions. These include communications satellites like Starlink; space stations such as the ISS; scientific satellites like the Hubble; Earth observation satellites from companies like Planet Labs, Umbra, and HawkEye 360; GPS; miniature CubeSats for education and research; and military/defense satellites.

Loading next visibility...
Identifier
42794, 2017-036AF
Orbit
SSO
Last TLE update
18 hours ago
Origin
Manufacturer
D-ORBIT
Mission
Non-operational Commercial Technology
Bus & Motor
CUBESAT 3U, Unknown motor
Mass
4.5 kg wet, 4.2 kg dry
Launch date (UTC)
2017-06-23 (8 years ago)
Launch vehicle
PSLV-XL
Launch site
Sirharikota (SRI)
Object type
Payload
Rocket body
Debris
Shape & HBR
Box, 0.3 m
Radar Cross Section
0.035 m², Small (<0.1 m²)

Expand to show TLE details & history

TLE from 18 hours ago
0 DSAT
1 42794U 17036AF  25128.49766800  .00008041  00000-0  45158-3 0  9990
2 42794  97.5124 107.0068 0096036 117.4874 243.6158 15.09657693429650
Epoch: 2025-05-08T11:56Z
Definitive object data (Epoch: 2025-05-08T11:56:38.515Z)
Latitude
-0.00001°
Longitude
61.27901°
Altitude
570.347 km
Speed
7.559 km/s
True Right ascension
07h 08m 01s
True Declination
0° 00' 00"
Sunlit
Object was in daylight at TLE epoch
Visualization TLE readout
Latitude
-23.66831°
Longitude
-121.26547°
Altitude
544.132 km
Speed
7.59 km/s
Apparent Right ascension
21h 59m 35s
Apparent Declination
-47° 08' 19"
Sunlit
Object is in full shadow
Visualization observer readout
Local Sidereal Time
14:28:46
Azimuth
122.106° SE
Elevation
-42.199°
Doppler factor
1
Orbital elements
Apogee altitude
600.613 km
Perigee altitude
467.845 km
Semi-major axis
6,912.366 km
Eccentricity
0.0096036
Inclination
97.5124°
RAAN
107.0068°
Arg. of periapsis
117.4874°
True anomaly
242.63522°
Mean anomaly
243.6158°
Eccentric anomaly
243.12498°
Mean motion
3.77662 °/min
BSTAR
0.00045158
Orbital period
95.32 mins
Loading maneuver chart data...
Loading SW <> Apogee altitude chart data...
Loading historical data...
Loading historical data...
Loading historical data...
Loading historical data...
Loading historical data...
Loading historical data...
Loading historical data...

DSAT Visibility forecast

Observer location: undefined°, undefined°

Span
Click to sort rows by Start time (UTC) header in descending order
Start Az.
Max El. time (UTC)
Max El. Az.
Max El.
End time (UTC)
End Az.
5 mins2025-05-09 10:46:57.053Z38.86° NE2025-05-09 10:49:57.053Z101.02° ESE23.907°2025-05-09 10:51:57.053Z146.243° SSE
5 mins2025-05-09 23:04:57.053Z209.824° SW2025-05-09 23:06:57.053Z266.074° W29.954°2025-05-09 23:09:57.053Z327.312° NNW
|